Time,TemperatureF,DewpointF,PressureIn,WindDirection,WindDirectionDegrees,WindSpeedMPH,WindSpeedGustMPH,Humidity,HourlyPrecipIn,Conditions,Clouds,dailyrainin,SoftwareType,DateUTC
2013-08-03 00:31:00,73.6,70.2,30.00,North,11,0.0,0.0,89,0.00,,---,0.00,VWS V13.01,2013-08-03 04:31:00,
2013-08-03 01:01:00,73.0,69.6,30.00,North,11,0.0,0.0,89,0.00,,---,0.00,VWS V13.01,2013-08-03 05:01:00,
2013-08-03 01:31:00,72.6,69.8,30.00,North,11,0.0,0.0,91,0.00,,---,0.00,VWS V13.01,2013-08-03 05:31:00,
2013-08-03 02:01:00,72.4,69.9,30.00,North,11,0.0,0.0,92,0.00,,---,0.00,VWS V13.01,2013-08-03 06:01:00,
2013-08-03 02:31:00,72.2,69.8,29.99,North,11,0.0,0.0,92,0.00,,---,0.00,VWS V13.01,2013-08-03 06:31:00,
2013-08-03 03:01:00,71.7,69.6,29.98,North,11,0.0,0.0,93,0.00,,---,0.00,VWS V13.01,2013-08-03 07:01:00,
2013-08-03 03:31:00,71.5,69.4,29.98,North,11,0.0,0.0,93,0.00,,---,0.00,VWS V13.01,2013-08-03 07:31:00,
2013-08-03 04:01:00,71.2,69.4,29.98,North,11,0.0,0.0,94,0.00,,---,0.00,VWS V13.01,2013-08-03 08:01:00,
2013-08-03 04:31:00,70.8,69.0,29.97,North,11,0.0,0.0,94,0.00,,---,0.00,VWS V13.01,2013-08-03 08:31:00,
2013-08-03 05:31:00,70.7,69.2,29.97,North,11,0.0,1.0,95,0.00,,---,0.00,VWS V13.01,2013-08-03 09:31:00,
2013-08-03 06:31:00,71.1,69.6,29.98,North,11,0.0,0.0,95,0.00,,---,0.00,VWS V13.01,2013-08-03 10:31:00,
2013-08-03 07:01:00,70.6,69.1,29.98,North,11,0.0,0.0,95,0.00,,---,0.00,VWS V13.01,2013-08-03 11:01:00,
2013-08-03 07:31:00,71.0,69.5,29.98,North,11,0.0,0.0,95,0.00,,---,0.00,VWS V13.01,2013-08-03 11:31:00,
2013-08-03 08:01:00,72.0,70.8,29.98,North,11,0.0,0.0,96,0.00,,---,0.00,VWS V13.01,2013-08-03 12:01:00,
2013-08-03 08:31:00,73.5,72.3,29.99,North,11,0.0,0.0,96,0.00,,---,0.00,VWS V13.01,2013-08-03 12:31:00,
2013-08-03 09:01:00,75.2,73.4,29.99,North,11,0.0,1.0,94,0.00,,---,0.00,VWS V13.01,2013-08-03 13:01:00,
2013-08-03 09:31:00,78.2,73.3,29.98,NW,310,1.0,3.0,85,0.00,,---,0.00,VWS V13.01,2013-08-03 13:31:00,
2013-08-03 10:01:00,81.0,71.5,29.99,NW,310,0.0,6.0,73,0.00,,---,0.00,VWS V13.01,2013-08-03 14:01:00,
2013-08-03 10:31:00,82.9,69.9,29.99,NNE,15,1.0,7.0,65,0.00,,---,0.00,VWS V13.01,2013-08-03 14:31:00,
2013-08-03 11:31:00,84.8,67.9,29.99,SE,124,1.0,7.0,57,0.00,,---,0.00,VWS V13.01,2013-08-03 15:31:00,
2013-08-03 12:01:00,85.6,68.6,29.99,SSE,160,2.0,8.0,57,0.00,,---,0.00,VWS V13.01,2013-08-03 16:01:00,
2013-08-03 12:31:00,86.5,66.8,29.98,WNW,288,0.0,6.0,52,0.00,,---,0.00,VWS V13.01,2013-08-03 16:31:00,
2013-08-03 13:01:00,86.5,67.3,29.98,SSE,168,0.0,5.0,53,0.00,,---,0.00,VWS V13.01,2013-08-03 17:01:00,
2013-08-03 13:31:00,86.7,67.5,29.98,SSE,161,0.0,6.0,53,0.00,,---,0.00,VWS V13.01,2013-08-03 17:31:00,
2013-08-03 14:01:00,87.5,64.2,29.98,WNW,303,0.0,10.0,46,0.00,,---,0.00,VWS V13.01,2013-08-03 18:01:00,
2013-08-03 14:31:00,87.9,65.8,29.97,NE,36,0.0,7.0,48,0.00,,---,0.00,VWS V13.01,2013-08-03 18:31:00,
2013-08-03 15:01:00,87.3,66.4,29.96,North,11,0.0,6.0,50,0.00,,---,0.00,VWS V13.01,2013-08-03 19:01:00,
2013-08-03 15:31:00,88.6,68.7,29.95,North,360,1.0,7.0,52,0.00,,---,0.00,VWS V13.01,2013-08-03 19:31:00,
2013-08-03 16:01:00,87.1,68.4,29.95,North,10,2.0,5.0,54,0.00,,---,0.00,VWS V13.01,2013-08-03 20:01:00,
2013-08-03 16:31:00,86.7,69.7,29.94,NNW,327,1.0,4.0,57,0.00,,---,0.00,VWS V13.01,2013-08-03 20:31:00,
2013-08-03 17:01:00,86.5,69.0,29.94,WNW,303,0.0,6.0,56,0.00,,---,0.00,VWS V13.01,2013-08-03 21:01:00,
2013-08-03 17:31:00,87.4,69.3,29.93,SSE,156,0.0,6.0,55,0.00,,---,0.00,VWS V13.01,2013-08-03 21:31:00,
2013-08-03 18:01:00,86.3,69.3,29.93,NW,310,2.0,6.0,57,0.00,,---,0.00,VWS V13.01,2013-08-03 22:01:00,
2013-08-03 18:31:00,84.4,69.5,29.93,North,358,0.0,6.0,61,0.00,,---,0.00,VWS V13.01,2013-08-03 22:31:00,
2013-08-03 19:01:00,82.2,71.0,29.93,North,358,0.0,3.0,69,0.00,,---,0.00,VWS V13.01,2013-08-03 23:01:00,
2013-08-03 19:31:00,81.1,72.0,29.93,North,358,0.0,1.0,74,0.00,,---,0.00,VWS V13.01,2013-08-03 23:31:00,
2013-08-03 20:01:00,79.5,71.3,29.94,North,358,0.0,0.0,76,0.00,,---,0.00,VWS V13.01,2013-08-04 00:01:00,
2013-08-03 20:31:00,78.1,70.3,29.94,North,358,0.0,0.0,77,0.00,,---,0.00,VWS V13.01,2013-08-04 00:31:00,
2013-08-03 21:01:00,77.5,70.8,29.94,North,358,0.0,1.0,80,0.00,,---,0.00,VWS V13.01,2013-08-04 01:01:00,
2013-08-03 21:31:00,76.4,70.9,29.95,North,358,0.0,0.0,83,0.00,,---,0.00,VWS V13.01,2013-08-04 01:31:00,
2013-08-03 22:01:00,75.8,70.6,29.96,North,357,0.0,0.0,84,0.00,,---,0.00,VWS V13.01,2013-08-04 02:01:00,
2013-08-03 22:31:00,75.0,70.2,29.96,North,357,0.0,0.0,85,0.00,,---,0.00,VWS V13.01,2013-08-04 02:31:00,
2013-08-03 23:01:00,74.6,70.5,29.96,North,357,0.0,0.0,87,0.00,,---,0.00,VWS V13.01,2013-08-04 03:01:00,
2013-08-03 23:31:00,74.3,70.2,29.96,North,357,0.0,0.0,87,0.00,,---,0.00,VWS V13.01,2013-08-04 03:31:00,